Location: G�ndlingen
(48.0142°N, 7.6396°E)
Time: 01:31:11
(UTC+00:00)

Cosmos 1408 - Visible Passes

Search period start: 24 October 2020 00:00
Search period end: 03 November 2020 00:00
Orbit: 468 x 495 km, 82.6° (Epoch: 23 October)

Date Brightness Start Highest point End Pass type
(mag) Time Alt. Az. Time Alt. Az. Time Alt. Az.
24 Oct 4.6 17:15:20 10° NE 17:16:13 11° ENE 17:16:13 11° ENE visible
24 Oct 4.0 18:48:22 10° NNW 18:50:33 33° NNW 18:50:33 33° NNW visible
25 Oct 2.7 18:22:42 10° N 18:25:49 61° N 18:25:49 61° N visible
26 Oct 2.7 17:57:09 10° N 18:00:43 47° ENE 18:01:18 42° ESE visible
26 Oct 5.7 19:33:30 10° NW 19:35:18 13° W 19:35:41 13° W visible
27 Oct 3.4 17:31:44 10° N 17:35:00 30° ENE 17:37:15 16° SE visible
27 Oct 5.1 19:07:04 10° NW 19:09:50 20° W 19:11:40 15° SW visible
28 Oct 3.9 17:06:30 10° NNE 17:09:15 20° ENE 17:11:59 10° ESE visible
28 Oct 4.4 18:41:03 10° NNW 18:44:19 32° W 18:47:36 10° SSW visible
29 Oct 3.4 18:15:11 10° NNW 18:18:46 52° W 18:22:20 10° S visible
30 Oct 2.5 17:49:29 10° N 17:53:09 87° W 17:56:50 10° S visible
31 Oct 2.6 17:23:52 10° N 17:27:30 57° ENE 17:31:08 10° SSE visible
31 Oct 6.1 19:00:45 10° WNW 19:02:00 11° W 19:03:15 10° WSW visible
01 Nov 5.8 05:38:04 10° ESE 05:40:10 15° E 05:42:17 10° NE visible
01 Nov 3.2 16:58:23 10° N 17:01:48 35° ENE 17:05:12 10° SE visible
01 Nov 5.5 18:34:01 10° NW 18:36:33 18° W 18:39:04 10° SW visible
02 Nov 4.8 18:07:53 10° NNW 18:11:03 27° W 18:14:12 10° SSW visible
